GFSGBSN_prec_cloud_177.txt.gz
Cloud_Cover
100 100 100 100 100 100 100 100 100 100 100 100 100 100 100 100 100 100 100 100 100 100 100 100 100 100 100 100 100 85 100 100 100 100 100 100 95 43 46 19 58 26 100 100 99 100 100
100 100 100 100 100 100 100 100 100 100 100 100 100 100 100 100 100 100 100 100 100 100 100 100 100 100 100 100 100 100 100 100 100 100 99 100 92 66 15 5 5 24 30 99 96 100 42
100 100 100 100 100 100 100 100 100 100 100 100 100 100 100 100 100 100 100 100 100 100 100 100 100 100 100 100 100 100 100 100 74 64 87 77 44 99 83 100 100 100 100 100 100 100 100
100 100 100 100 100 100 100 100 100 100 100 100 100 100 100 100 100 100 100 100 100 100 100 100 100 100 100 100 100 100 100 100 69 100 100 91 93 30 75 100 100 100 100 100 100 93 100
100 100 100 100 100 100 100 100 100 100 100 100 100 100 100 100 100 100 100 100 100 100 100 100 100 100 100 100 100 100 100 100 89 50 100 98 99 92 74 100 100 100 100 100 100 100 100
100 100 100 100 100 100 100 100 100 100 100 100 100 100 100 100 100 100 100 100 100 100 100 100 100 100 100 100 100 100 100 100 100 100 100 99 56 6 100 100 100 95 84 100 100 100 100
100 100 100 100 100 100 100 100 100 100 100 100 100 100 100 100 100 100 100 100 100 98 100 100 63 100 100 100 100 100 100 100 100 100 100 100 100 99 100 100 100 100 71 100 100 100 41
100 100 100 100 100 100 100 100 100 100 100 100 100 100 100 100 100 100 100 100 100 100 51 90 97 100 100 99 100 100 100 100 100 100 100 100 100 100 100 100 100 100 90 66 83 88 69
100 100 100 100 100 100 100 100 100 100 100 100 100 100 100 100 100 91 100 100 100 100 100 100 100 99 97 44 29 100 50 94 100 100 100 100 100 100 100 100 96 98 94 70 100 100 57
100 100 100 100 100 100 100 100 100 100 100 100 100 100 100 100 100 100 100 100 100 100 100 49 99 65 5 62 12 69 100 97 100 100 100 100 100 100 100 100 100 100 100 100 100 100 100
100 100 100 100 100 100 100 100 100 100 100 100 100 100 100 100 100 100 100 100 100 100 100 12 9 62 81 54 66 23 56 74 99 97 100 100 100 100 100 100 100 100 100 100 100 100 82
77 100 100 100 100 100 100 100 100 100 100 100 100 100 100 100 100 100 100 100 100 100 100 50 60 100 100 100 100 100 90 85 100 70 48 100 96 100 100 100 100 100 100 100 100 100 61
100 100 100 100 100 100 100 100 100 100 100 100 100 100 100 100 100 100 100 100 100 100 100 100 91 100 100 94 100 100 100 100 100 100 100 100 100 100 100 100 100 100 100 100 100 100 100
100 100 100 100 100 100 100 100 100 100 100 100 100 100 100 100 100 100 100 100 100 78 94 61 16 8 26 53 100 100 100 100 100 100 100 100 100 100 100 100 100 100 100 100 100 49 5
100 100 100 100 100 100 100 100 100 100 100 100 100 100 100 100 100 100 100 100 100 100 100 100 99 53 12 56 38 20 28 97 100 100 100 73 56 100 100 100 99 100 100 100 100 100 84
100 100 100 100 100 100 100 100 100 100 100 100 100 100 100 100 100 100 100 100 100 100 100 100 100 73 100 100 100 100 100 74 100 100 100 100 89 72 94 100 100 100 100 100 100 100 100
100 100 100 100 100 100 100 100 100 100 100 100 100 100 100 100 100 100 100 100 100 100 100 100 99 84 100 94 100 100 99 68 82 100 100 100 98 54 40 29 25 53 86 89 90 71 99
100 100 100 100 100 100 100 100 100 100 100 100 100 100 100 100 100 100 100 100 100 100 100 100 100 100 100 100 99 100 92 100 100 100 100 100 100 79 11 15 35 66 64 99 100 100 100
100 100 100 100 100 100 100 100 100 100 100 100 100 100 100 100 100 100 100 100 100 100 100 100 100 100 100 100 100 100 100 100 100 100 100 100 100 100 52 99 100 100 49 46 100 100 74
84 48 100 100 100 79 100 100 100 100 100 100 100 100 100 100 100 100 100 100 100 100 100 100 100 100 100 100 100 100 100 100 100 100 100 100 100 100 100 100 100 100 100 100 100 100 100
100 100 100 94 100 100 100 100 100 100 100 100 100 100 100 100 100 100 100 100 100 100 100 100 100 100 100 100 100 100 96 100 100 100 100 100 100 100 100 100 100 100 100 100 100 96 100
100 100 35 84 100 100 100 100 100 100 100 99 100 100 100 100 100 100 100 100 100 100 100 100 100 100 100 100 100 100 100 100 100 99 100 100 100 100 100 100 100 100 100 100 100 100 100
100 100 100 100 100 81 5 18 96 100 100 100 100 100 95 100 100 100 100 100 100 100 100 100 100 100 100 100 100 100 100 100 100 100 100 100 100 100 88 50 94 100 36 58 59 100 100
24 58 66 75 100 82 25 93 23 81 97 94 87 100 100 100 100 100 72 100 100 100 100 100 100 100 100 100 100 100 100 100 100 100 98 100 100 100 91 100 100 0 0 5 5 37 90
5 21 83 60 97 86 5 13 5 5 59 100 98 100 100 100 100 100 100 100 100 100 100 100 100 100 100 100 100 100 100 100 100 99 100 100 100 100 100 91 13 25 0 1 5 40 94
0 6 16 4 91 100 100 100 90 14 12 5 5 5 22 98 100 100 100 100 100 100 100 100 100 100 100 100 100 100 100 98 89 100 100 100 100 100 100 100 100 81 34 25 65 85 39
2 1 0 3 5 11 88 100 100 100 77 100 44 9 6 85 37 100 100 100 100 100 100 100 100 100 100 100 100 100 100 100 100 100 92 99 100 93 99 100 100 99 100 100 100 100 99
0 4 8 4 49 5 4 21 100 100 100 100 100 100 98 90 88 100 100 100 100 100 100 100 100 100 100 100 100 100 100 100 100 100 100 100 100 100 100 100 100 100 100 100 100 100 100
4 4 4 10 0 20 11 5 27 100 100 100 100 100 100 100 100 100 100 100 100 100 100 100 100 100 100 100 100 100 100 100 100 100 100 100 100 100 100 100 100 100 100 100 100 100 100

GFSGBSN_prec_cloud_183.txt.gz
Cloud_Cover
100 100 100 100 100 100 100 100 100 100 100 100 100 100 100 100 100 100 91 100 100 95 100 100 100 100 100 100 41 100 78 94 89 72 96 69 78 94 74 80 32 92 67 100 92 78 5
100 100 100 100 100 100 100 100 100 100 100 100 100 100 100 100 100 100 70 85 100 100 100 100 100 100 99 100 100 100 100 100 90 100 99 84 79 8 7 71 77 100 98 100 82 5 5
100 100 100 100 100 100 100 100 100 100 100 100 100 100 100 100 100 100 100 54 100 100 100 100 100 82 100 100 100 100 100 100 100 56 39 81 50 94 100 100 100 100 100 100 45 30 93
100 100 100 100 100 100 100 100 100 100 100 100 100 100 100 100 100 100 100 99 100 100 100 100 100 100 100 100 100 100 100 100 100 100 100 61 34 5 18 30 100 100 100 100 100 95 89
100 100 100 100 100 100 100 100 100 100 100 100 100 100 100 100 100 100 100 100 100 100 100 100 100 100 100 100 100 100 100 100 100 93 84 71 72 6 52 47 57 67 31 42 52 6 33
100 100 100 100 100 100 100 100 100 100 100 100 100 100 100 100 100 100 100 100 100 100 100 100 100 100 100 100 100 100 100 100 100 100 100 95 36 5 34 90 70 89 100 100 98 100 98
100 100 100 100 100 100 100 100 100 100 100 100 100 100 100 100 100 100 100 100 100 100 100 100 100 100 100 100 100 100 100 100 100 100 100 100 100 100 100 100 14 100 98 99 100 100 100
100 100 100 100 100 100 100 100 100 100 100 100 100 100 100 100 100 100 100 100 100 100 100 100 100 100 100 100 100 100 100 100 100 100 98 100 100 100 100 80 36 5 69 97 21 90 100
100 100 100 100 100 100 100 100 100 100 100 100 100 100 100 100 100 100 100 100 100 100 100 100 100 100 100 100 100 91 93 94 74 100 78 69 91 49 91 93 34 3 5 5 14 100 100
29 100 100 100 100 100 100 100 100 100 100 100 100 100 100 100 100 100 100 100 100 100 100 70 98 100 98 90 86 100 100 100 74 98 100 12 100 40 20 30 42 12 5 5 12 27 90
5 99 100 100 100 100 100 100 100 100 100 100 100 100 100 100 100 100 100 100 100 100 100 43 76 100 100 100 100 98 100 78 27 6 12 73 60 100 100 98 28 6 6 32 6 19 18
5 6 100 100 100 100 100 100 100 100 100 100 100 100 100 100 100 100 100 100 100 100 98 58 98 100 78 100 100 100 100 100 92 93 69 82 50 80 90 74 92 74 57 99 97 100 94
19 53 52 100 100 100 100 100 100 100 100 100 100 100 100 100 100 100 100 100 100 100 90 5 72 78 100 100 100 100 100 98 33 97 79 46 65 10 18 74 100 100 100 100 100 100 100
82 84 60 100 100 100 100 100 100 100 100 100 100 100 100 100 100 100 100 100 100 74 72 18 79 50 44 92 94 100 100 99 99 100 91 100 93 44 100 100 100 100 100 100 100 91 99
100 34 27 41 100 100 100 100 100 100 100 100 100 100 100 100 100 100 100 100 100 100 84 17 79 79 99 100 100 100 100 99 100 100 100 100 100 100 97 98 100 98 100 100 98 92 92
98 100 100 100 100 100 100 100 100 100 100 100 100 100 100 100 100 100 100 100 100 100 100 100 78 77 100 100 100 100 100 100 100 100 100 100 100 87 59 24 30 100 50 80 98 60 12
100 100 100 100 100 100 100 100 100 100 100 100 100 100 100 100 100 100 100 100 100 100 100 100 100 100 100 100 100 100 100 100 100 100 100 100 100 100 81 75 99 100 97 71 100 68 11
100 100 100 100 100 100 100 100 100 100 100 100 100 100 100 100 100 100 100 100 100 100 100 100 100 100 100 100 100 100 92 100 73 100 100 100 97 99 98 98 99 100 100 100 100 35 85
100 100 100 100 100 100 100 100 100 100 100 100 100 100 100 100 100 100 100 100 100 100 100 100 100 100 100 100 100 100 100 100 97 100 100 100 98 100 100 97 100 100 100 100 100 100 85
100 100 100 100 100 100 100 100 100 100 100 100 100 100 100 100 100 100 100 100 100 100 100 100 100 100 100 100 100 100 100 97 100 100 100 100 100 100 74 97 100 100 100 100 100 100 96
100 100 100 100 100 100 100 100 100 100 100 100 100 100 100 100 100 100 100 100 100 100 100 100 100 100 100 100 100 100 100 100 93 100 100 100 100 100 100 100 100 100 100 77 100 100 100
90 98 36 26 100 100 100 100 100 100 100 100 100 100 100 100 100 100 100 100 100 100 100 100 100 100 100 100 100 100 100 100 100 99 100 99 95 87 46 59 100 100 100 100 100 100 100
100 81 48 54 100 100 100 100 100 100 100 100 100 100 100 100 100 100 100 100 100 100 100 100 100 100 100 100 100 100 100 100 100 100 100 100 100 100 78 31 84 100 11 82 92 82 100
46 100 25 5 5 13 53 8 71 100 100 100 100 100 100 100 100 100 100 100 100 100 100 100 100 100 100 100 100 100 100 100 100 100 100 100 100 100 100 100 100 24 92 100 100 100 100
5 4 28 63 21 5 10 2 3 88 100 100 100 100 100 100 100 100 100 100 100 100 100 100 100 100 100 100 100 100 100 100 100 100 100 100 100 100 100 100 100 100 100 99 100 100 95
2 5 3 3 0 5 5 0 0 5 93 100 100 100 100 100 100 100 100 100 100 100 100 100 100 100 100 100 100 100 100 100 100 100 100 100 100 100 100 100 100 99 100 100 100 100 66
4 1 3 1 5 3 0 3 2 0 4 68 82 100 100 100 100 100 100 100 100 100 100 100 100 100 100 100 100 100 100 100 100 100 100 100 100 100 100 100 100 100 95 99 100 88 97
1 5 1 3 4 5 5 0 0 1 2 4 44 44 85 100 100 100 100 100 100 100 100 100 100 100 100 97 100 100 100 100 99 78 100 100 100 99 100 100 100 100 78 51 78 100 100
5 5 5 1 0 4 5 5 0 0 0 1 28 4 5 79 100 33 100 100 100 100 100 100 100 100 100 100 100 100 97 100 92 98 100 100 100 100 100 100 100 100 100 92 51 63 82

GFSGBSN_prec_cloud_189.txt.gz
Cloud_Cover
100 100 100 100 100 100 100 100 100 100 100 100 100 100 100 100 100 100 100 100 100 100 20 94 63 85 81 100 100 100 100 4 51 100 95 84 99 100 100 100 100 98 97 86 94 74 74
100 100 100 100 100 100 100 100 100 100 100 100 100 100 100 100 100 100 100 100 100 100 100 100 52 99 80 100 100 100 53 84 7 100 100 100 100 100 100 100 100 100 93 5 14 90 2
93 100 100 100 100 100 100 100 100 100 100 100 100 100 100 100 100 100 100 100 100 100 100 100 100 100 100 100 84 100 100 62 24 42 87 100 100 100 100 100 100 100 97 48 100 4 98
81 99 100 100 100 100 100 100 100 100 100 100 100 100 100 100 100 100 100 100 100 100 100 100 100 99 100 100 100 100 100 100 100 100 91 84 72 93 73 100 100 97 97 100 100 100 100
0 80 100 100 100 100 100 100 100 100 100 100 100 100 100 100 100 100 100 100 100 100 100 96 100 100 100 100 100 100 100 100 100 100 100 95 100 100 100 100 100 100 100 100 100 100 100
2 53 85 100 100 100 100 100 100 100 100 100 100 100 100 100 100 100 100 100 100 100 100 100 100 100 100 100 100 100 100 100 87 100 100 100 100 100 100 100 100 100 100 100 100 100 100
5 0 93 100 100 100 100 100 100 100 100 100 100 100 100 100 100 100 100 100 100 100 100 100 100 100 100 100 100 100 100 100 73 99 100 100 100 100 100 100 99 100 100 100 100 100 100
5 5 24 100 100 100 100 100 100 100 100 100 100 100 100 100 100 100 100 100 100 100 100 100 94 81 100 100 100 100 100 100 100 98 100 98 100 100 100 100 84 47 100 100 100 98 90
37 5 0 92 100 100 100 100 100 100 100 100 100 100 100 100 100 100 100 100 100 100 100 100 100 100 100 15 100 100 100 100 100 100 100 100 100 100 100 99 99 100 100 98 68 93 100
47 5 4 22 100 100 100 100 100 100 100 100 100 100 100 100 100 100 100 100 100 100 100 100 100 100 100 99 57 100 100 100 100 100 100 56 100 100 99 15 54 26 14 14 78 38 12
68 5 5 5 5 100 100 100 100 100 100 100 100 100 100 100 100 100 100 100 100 100 98 100 100 100 100 100 100 100 100 100 100 100 100 100 100 96 96 100 97 57 76 100 100 99 46
6 5 3 3 5 71 100 100 100 100 100 100 100 100 100 100 100 100 100 100 100 99 93 100 100 100 100 100 100 100 100 100 100 100 100 100 100 100 100 100 62 100 100 22 66 63 100
88 4 4 4 5 34 100 100 100 100 100 100 100 100 100 100 100 100 100 100 100 100 7 91 91 100 100 100 100 100 100 100 100 100 100 100 100 100 100 100 100 100 100 100 100 89 87
8 5 5 2 6 20 64 100 100 100 100 100 100 100 100 100 100 100 100 100 100 97 100 99 100 96 92 100 100 100 100 100 100 100 100 100 100 100 100 100 100 100 100 100 96 78 42
4 4 2 4 35 74 5 100 100 100 100 100 100 100 100 100 100 100 100 100 12 100 100 100 100 100 100 34 98 100 100 100 100 100 100 100 100 100 100 100 100 100 100 100 66 59 5
95 12 5 13 35 74 30 100 100 100 100 100 100 100 100 100 100 100 100 100 30 100 100 100 100 100 100 100 80 99 88 100 100 100 100 100 100 100 100 100 100 100 100 98 92 63 5
83 92 7 96 13 42 7 100 100 100 100 100 100 100 100 100 100 100 100 100 75 78 100 100 100 100 100 100 89 50 38 89 100 100 100 100 100 100 100 92 100 100 100 100 31 66 6
100 84 100 100 98 47 36 56 100 100 100 100 100 100 100 100 100 100 100 100 100 100 100 100 90 100 100 100 100 66 99 100 45 100 100 100 100 50 24 7 8 66 92 17 51 15 57
100 100 100 100 100 100 93 75 100 100 100 100 100 100 100 100 100 100 100 100 100 100 100 100 100 100 100 100 100 96 100 97 100 69 100 99 100 100 71 100 100 100 100 87 47 100 25
100 100 100 100 100 100 61 100 100 100 100 100 100 100 100 100 100 100 100 100 100 100 100 100 100 100 100 100 100 100 100 100 100 95 100 100 100 100 100 78 99 100 92 93 100 100 11
100 100 100 100 100 100 100 100 100 100 100 100 100 100 100 100 100 100 100 100 100 100 100 100 100 100 100 100 100 100 100 100 100 100 100 100 100 100 100 100 100 100 94 100 100 88 99
100 100 100 100 100 100 100 100 100 100 100 100 100 100 100 100 100 100 100 100 100 100 100 100 100 100 100 100 100 100 100 100 100 100 100 100 100 100 100 100 100 100 99 100 100 100 100
100 100 100 100 100 100 100 100 100 100 100 100 100 100 100 100 100 100 100 100 100 100 100 100 100 100 100 100 100 100 100 100 100 100 100 100 100 100 100 100 100 100 90 100 100 100 100
100 100 100 100 70 92 100 100 100 100 100 100 100 100 100 100 100 100 100 100 100 100 100 100 100 100 100 100 100 100 100 100 100 100 100 100 100 100 100 100 100 96 100 100 100 100 100
100 100 100 100 100 100 100 100 100 100 100 100 100 100 100 100 100 100 100 100 100 100 100 100 100 100 100 100 100 100 100 100 100 100 100 100 100 100 100 100 100 99 100 100 100 100 100
5 100 100 100 100 100 100 100 100 100 100 100 100 100 100 100 100 100 100 100 100 100 100 100 100 100 100 100 100 100 100 100 100 100 100 100 100 100 100 100 100 100 100 100 100 100 100
5 87 100 100 100 100 100 100 100 100 100 100 100 100 100 100 100 100 100 100 100 100 100 100 100 100 100 100 100 100 100 100 100 100 100 100 100 100 100 100 100 100 100 100 100 100 100
6 5 41 100 100 100 100 100 100 100 100 100 100 100 100 100 100 100 100 100 100 100 100 100 100 100 100 100 100 100 100 100 100 100 100 100 100 100 100 100 100 100 100 100 100 100 100
5 5 5 69 100 100 100 100 100 100 100 100 100 100 100 100 100 100 100 100 100 100 100 100 100 100 100 100 100 100 100 100 100 100 100 100 100 100 100 100 100 100 100 100 100 100 100

GFSGBSN_prec_cloud_192.txt.gz
Cloud_Cover
0 2 98 44 100 100 100 100 100 100 100 100 100 100 100 100 100 100 100 100 100 62 5 25 5 18 66 96 99 97 92 100 88 100 88 44 15 100 100 100 75 100 100 100 100 100 57
0 0 2 92 100 100 100 100 100 100 100 100 100 100 100 100 100 100 100 100 100 100 96 92 95 97 100 69 13 100 100 59 96 100 91 82 33 40 100 100 67 100 100 100 100 100 97
2 4 4 84 47 100 100 100 100 100 100 100 100 100 100 100 100 100 100 100 100 100 100 100 100 100 100 94 7 100 59 95 100 100 92 24 6 68 75 9 45 100 100 100 100 100 28
0 0 5 12 100 100 100 100 100 100 100 100 100 100 100 100 100 100 100 100 100 100 100 100 100 100 100 97 100 100 100 100 100 95 11 25 68 67 93 100 82 78 58 100 100 8 100
3 5 5 5 97 29 100 100 100 100 100 100 100 100 100 100 100 100 100 100 100 100 96 98 100 100 100 100 100 100 97 100 60 100 95 47 62 100 100 100 100 100 100 100 100 100 100
26 1 7 36 21 33 100 100 100 100 100 100 100 100 100 100 100 100 100 100 100 100 100 98 98 100 100 100 100 100 100 100 100 100 100 100 100 100 100 100 100 100 100 100 100 100 5
88 68 97 17 0 17 100 100 100 100 100 100 100 100 100 100 100 100 100 100 100 100 100 100 100 100 100 100 100 86 100 100 100 100 100 100 100 100 100 86 100 100 100 100 100 100 100
5 5 10 6 2 4 100 100 100 100 100 100 100 100 100 100 100 100 100 100 100 100 100 100 100 100 100 100 100 100 100 100 100 100 100 100 100 100 100 92 100 100 100 98 98 100 100
5 5 5 5 5 32 77 100 100 100 100 100 100 100 100 100 100 100 100 100 100 100 100 100 58 98 100 100 100 100 88 6 59 100 100 100 93 100 100 100 100 100 100 59 3 78 62
99 96 62 28 5 4 100 100 100 100 100 100 100 100 100 100 100 100 100 100 100 100 100 100 100 100 100 95 100 100 100 100 100 96 100 85 96 99 100 100 100 66 99 4 5 45 98
100 68 24 99 20 10 100 100 100 100 100 100 100 100 100 100 100 100 100 100 100 100 100 100 100 100 100 100 100 100 100 100 100 100 100 95 100 100 100 100 100 5 97 20 6 27 86
100 100 100 100 38 93 6 100 100 100 100 100 100 100 100 100 100 100 100 100 100 100 82 100 100 100 100 100 100 100 100 100 100 100 100 100 99 100 100 100 99 68 67 100 100 100 22
100 100 95 100 96 2 74 100 100 100 100 100 100 100 100 100 100 100 100 100 100 71 99 91 50 100 100 100 100 100 100 100 100 100 100 100 100 100 100 100 100 100 100 77 88 100 100
65 100 72 100 5 2 40 100 100 100 100 100 100 100 100 100 100 100 100 100 99 96 100 100 100 100 100 100 100 100 100 100 100 100 100 100 100 100 100 100 100 100 100 100 100 100 100
100 100 100 5 57 41 4 100 100 100 100 100 100 100 100 100 100 100 100 100 34 22 100 100 100 100 100 100 100 100 100 100 100 100 100 100 100 100 100 100 100 100 100 100 100 100 100
100 64 100 97 5 72 20 81 100 100 100 100 100 100 100 100 100 100 100 100 100 100 100 100 100 100 100 100 100 100 100 100 100 100 100 100 87 100 100 100 100 100 100 100 100 86 100
100 87 100 100 65 9 99 60 100 100 100 100 100 100 100 100 100 100 100 100 100 100 100 100 100 100 100 99 100 65 100 100 100 100 100 100 90 76 100 72 100 100 100 100 100 72 97
100 100 100 87 100 98 55 100 82 100 100 100 100 100 100 100 100 100 100 100 100 100 100 100 100 100 100 100 100 98 100 100 100 100 100 100 100 100 100 100 79 81 100 100 100 100 100
100 100 100 100 100 98 100 100 100 100 100 100 100 100 100 100 100 100 100 100 100 97 100 100 100 100 100 100 100 100 100 99 100 100 100 100 100 100 100 100 100 100 100 95 20 13 6
100 100 100 100 100 100 100 100 54 97 100 100 100 100 100 100 100 100 100 100 100 100 100 100 100 100 100 100 100 93 100 100 100 98 100 100 100 100 100 100 100 51 71 68 53 97 22
100 100 100 100 100 100 99 99 71 95 100 100 100 100 100 100 100 100 100 88 100 100 100 100 100 100 100 100 100 100 100 99 100 100 100 100 100 100 100 100 100 100 100 100 100 88 46
100 100 100 100 100 100 100 96 100 92 78 100 100 100 100 100 100 100 100 100 100 100 100 100 98 100 100 100 100 100 100 100 100 100 100 100 100 100 100 100 100 100 100 100 100 71 85
100 100 100 100 100 100 100 100 100 91 93 100 100 100 100 100 100 100 100 100 100 100 100 100 100 100 100 100 100 100 100 100 100 100 100 100 100 100 100 100 100 100 89 100 65 98 98
12 100 100 100 100 100 100 100 100 100 100 100 100 100 100 100 100 100 100 100 100 100 100 100 100 100 100 100 100 100 100 100 100 100 100 100 100 100 100 100 100 100 100 100 100 100 100
69 32 100 100 100 100 100 100 100 100 100 100 100 100 100 100 100 100 100 100 100 100 100 100 100 100 100 100 100 100 100 100 100 100 100 100 100 100 100 100 100 100 100 100 100 100 100
72 8 63 100 100 100 100 100 100 100 100 100 100 100 100 100 100 100 100 100 100 100 100 100 100 100 100 100 100 100 100 100 100 100 100 100 100 100 100 100 100 100 100 100 100 100 100
5 12 32 53 100 100 100 100 100 100 100 100 100 100 100 100 100 100 100 100 100 100 100 100 100 100 100 100 100 100 100 100 100 100 100 100 100 100 100 100 100 100 100 100 100 100 100
5 5 18 100 29 39 99 100 87 100 100 100 100 100 100 100 100 100 100 100 100 100 100 100 100 100 100 100 100 100 100 100 100 100 100 100 100 100 100 100 98 100 100 100 94 100 100
5 5 5 65 100 100 86 47 100 90 72 100 100 100 100 100 100 100 100 100 100 100 100 100 100 100 100 100 100 100 100 94 68 74 95 100 100 100 100 100 100 100 93 77 76 100 100

GFSGBSN_prec_cloud_198.txt.gz
Cloud_Cover
100 100 5 22 42 38 0 0 0 86 100 100 100 100 100 100 100 100 92 100 78 0 1 0 3 5 0 2 4 0 5 5 0 0 0 1 98 100 100 100 100 100 100 45 5 4 5
94 72 4 26 8 0 1 0 0 0 71 100 100 100 100 100 100 100 100 100 100 5 5 4 0 0 0 3 0 5 2 0 0 0 0 70 94 100 100 100 100 100 100 100 100 3 5
79 93 34 5 0 0 16 0 0 0 42 100 100 100 100 100 100 100 100 100 100 61 5 5 5 0 0 5 0 5 0 0 0 5 5 33 75 100 100 100 100 100 100 100 100 4 6
96 9 8 1 0 0 0 0 0 5 6 81 100 100 100 100 100 100 100 100 100 100 63 93 5 5 24 2 5 5 0 0 0 0 3 18 90 100 100 100 100 100 100 100 64 20 40
100 100 56 5 5 17 14 0 0 0 5 0 83 100 100 100 100 100 100 100 100 100 100 100 79 64 99 5 29 5 3 0 0 0 0 5 40 100 100 100 100 100 90 48 100 100 85
100 100 97 48 5 5 100 1 2 1 3 0 3 100 100 100 100 100 100 100 100 100 100 100 100 100 100 96 8 5 5 0 0 0 1 5 5 24 100 100 81 89 99 81 100 100 100
93 100 100 85 59 5 32 68 3 0 5 5 22 96 100 100 100 100 100 100 100 100 100 100 100 100 100 100 94 58 5 5 0 0 0 10 95 100 100 100 100 100 100 100 100 100 100
18 91 67 100 100 36 60 9 59 5 5 5 78 100 100 100 100 100 100 100 100 100 100 100 100 100 100 100 100 88 5 5 5 5 5 30 96 100 100 100 100 100 100 100 100 100 89
29 94 99 98 100 100 100 98 23 5 11 5 18 16 100 100 100 100 100 42 100 100 100 100 100 100 100 100 100 100 42 48 36 25 52 100 100 100 100 100 100 100 100 100 100 100 94
38 22 100 100 35 100 100 97 38 16 24 21 48 5 100 100 100 100 100 88 100 100 100 100 100 100 100 100 100 100 100 17 11 89 61 4 48 100 100 100 100 100 100 74 96 48 62
34 100 100 100 29 2 5 94 100 13 33 8 100 58 100 100 100 100 100 100 100 100 100 100 100 100 100 82 100 100 100 100 94 61 6 15 100 100 100 100 100 100 100 100 91 5 0
100 100 90 92 50 78 4 100 98 5 5 14 77 43 100 100 100 100 100 100 100 100 72 32 95 99 100 91 99 100 100 100 98 100 100 100 100 100 100 100 100 100 100 100 100 8 0
100 100 100 99 100 10 46 65 71 19 40 82 78 60 100 100 100 100 100 100 100 100 30 6 6 73 100 100 99 100 100 100 100 100 100 100 100 100 100 100 100 100 100 100 79 10 4
100 100 100 79 100 100 100 99 5 21 39 96 100 96 100 100 100 100 100 100 100 63 5 5 5 100 100 100 100 100 100 99 98 100 100 100 100 100 100 100 100 100 100 100 39 5 10
100 100 100 100 100 100 100 100 100 100 77 99 100 100 100 100 100 100 100 100 97 2 0 5 61 18 67 87 100 100 100 100 100 100 100 100 100 100 100 100 100 100 100 100 100 6 9
100 100 100 100 100 100 100 100 100 100 100 100 100 100 100 100 100 100 100 100 88 0 70 30 5 63 74 79 93 98 100 100 100 100 100 100 100 100 100 100 100 100 100 100 100 12 0
100 100 100 100 100 100 100 100 100 100 100 100 100 100 100 100 100 100 100 100 12 0 21 100 33 70 100 100 100 100 100 100 100 100 100 100 100 100 100 100 100 100 100 100 77 4 0
100 100 100 100 100 100 100 100 100 100 100 100 100 100 100 100 100 100 100 100 5 5 4 99 76 95 100 100 100 100 100 100 100 100 100 100 100 100 22 83 100 100 100 100 97 77 47
100 95 100 100 100 100 100 100 100 100 100 100 100 100 100 100 100 100 100 100 62 92 55 78 100 100 50 100 100 100 100 100 100 100 100 100 100 100 93 11 12 10 91 98 60 36 50
100 100 100 100 100 100 100 100 100 100 100 100 100 100 100 100 100 100 100 100 100 96 64 31 96 100 99 100 100 100 100 100 100 100 100 100 100 100 100 100 100 80 61 100 100 96 60
100 100 100 100 100 100 100 100 100 100 100 100 100 100 100 100 100 100 100 100 100 100 48 64 42 100 100 100 100 100 100 100 100 100 100 100 100 100 100 100 100 100 100 89 93 96 16
100 100 100 100 100 100 100 100 100 44 96 100 100 100 100 100 100 100 100 100 100 100 55 8 5 38 100 100 100 100 100 100 100 100 100 100 100 100 100 100 100 100 100 100 100 100 33
100 100 100 100 100 100 100 100 100 100 100 100 100 100 100 100 100 100 100 99 51 98 33 5 14 64 100 100 100 100 100 100 100 100 100 100 100 100 98 100 100 100 100 100 99 43 38
100 100 100 100 100 100 100 100 100 100 100 100 100 100 100 100 100 100 100 100 100 79 5 83 92 68 83 100 100 100 100 100 100 100 100 100 100 100 100 100 100 100 100 97 88 99 48
100 100 100 100 100 100 100 100 100 100 100 100 100 100 100 100 100 100 100 100 100 100 100 100 100 100 100 100 100 100 100 100 100 100 100 100 100 100 100 100 76 6 88 97 89 37 91
100 100 100 100 100 100 100 100 100 100 100 100 100 100 100 100 100 100 100 100 100 100 100 100 100 100 100 100 100 100 100 100 100 100 100 100 100 100 100 100 100 99 99 99 98 26 100
100 100 100 100 100 100 100 100 100 100 100 100 100 100 100 100 100 100 100 100 100 100 100 100 100 100 100 100 100 100 100 100 100 100 100 100 100 100 100 100 100 100 100 99 97 88 100
100 100 100 100 100 100 100 100 100 100 100 100 100 100 100 100 100 100 100 100 100 100 100 100 100 100 100 100 100 100 100 100 100 100 100 100 100 100 100 100 94 100 100 100 78 100 100
100 100 100 100 100 93 100 100 100 100 100 100 100 100 100 100 100 100 100 100 100 100 100 100 100 100 100 100 100 100 100 100 100 100 100 100 100 100 100 100 100 100 100 97 89 92 67